Satellite: NO-44
Catalog number: 26931
Epoch time:      10350.79946006
Element set:     632
Inclination:      067.0511 deg
RA of node:       093.4738 deg
Eccentricity:    0.0006421
Arg of perigee:   278.3305 deg
Mean anomaly:     081.7086 deg
Mean motion:   14.29626509 rev/day
Decay rate:       2.10e-06 rev/day^2
Epoch rev:           48085
Checksum:              297

Satellite: SO-50
Catalog number: 27607
Epoch time:      10349.72764634
Element set:    0344
Inclination:      064.5565 deg
RA of node:       165.0725 deg
Eccentricity:    0.0051103
Arg of perigee:   006.9255 deg
Mean anomaly:     353.2479 deg
Mean motion:   14.71618093 rev/day
Decay rate:       -9.1e-07 rev/day^2
Epoch rev:           42909
Checksum:              307

Satellite: CO-55
Catalog number: 27844
Epoch time:      10349.58290240
Element set:    0000
Inclination:      098.7082 deg
RA of node:       355.9515 deg
Eccentricity:    0.0010306
Arg of perigee:   012.1344 deg
Mean anomaly:     348.0075 deg
Mean motion:   14.20753900 rev/day
Decay rate:        6.1e-07 rev/day^2
Epoch rev:           38684
Checksum:              279

Satellite: CO-57
Catalog number: 27848
Epoch time:      10349.56878386
Element set:    0949
Inclination:      098.7136 deg
RA of node:       355.0707 deg
Eccentricity:    0.0010192
Arg of perigee:   016.8152 deg
Mean anomaly:     343.3372 deg
Mean motion:   14.20541278 rev/day
Decay rate:        4.7e-07 rev/day^2
Epoch rev:           38679
Checksum:              342

Satellite: AO-51
Catalog number: 28375
Epoch time:      10349.48600622
Element set:    0849
Inclination:      098.0770 deg
RA of node:       332.8159 deg
Eccentricity:    0.0083101
Arg of perigee:   267.8020 deg
Mean anomaly:     091.3654 deg
Mean motion:   14.40715196 rev/day
Decay rate:        4.1e-07 rev/day^2
Epoch rev:           33961
Checksum:              301

Satellite: CP3
Catalog number: 31129
Epoch time:      10349.62146965
Element set:     748
Inclination:      097.9200 deg
RA of node:       019.2875 deg
Eccentricity:    0.0102630
Arg of perigee:   031.4557 deg
Mean anomaly:     329.2701 deg
Mean motion:   14.52349653 rev/day
Decay rate:       1.37e-06 rev/day^2
Epoch rev:           19419
Checksum:              300

Satellite: CO-65
Catalog number: 32785
Epoch time:      10350.63158560
Element set:     863
Inclination:      097.8755 deg
RA of node:       052.8173 deg
Eccentricity:    0.0015815
Arg of perigee:   054.0295 deg
Mean anomaly:     306.2368 deg
Mean motion:   14.81789712 rev/day
Decay rate:       6.19e-06 rev/day^2
Epoch rev:           14250
Checksum:              322

Satellite: KKS-1
Catalog number: 33493
Epoch time:      10350.79545977
Element set:     133
Inclination:      098.1041 deg
RA of node:       112.0937 deg
Eccentricity:    0.0018719
Arg of perigee:   270.7627 deg
Mean anomaly:     089.1454 deg
Mean motion:   14.81242928 rev/day
Decay rate:       6.95e-06 rev/day^2
Epoch rev:           10251
Checksum:              306

Satellite: SOHLA-1
Catalog number: 33496
Epoch time:      10349.75812253
Element set:     281
Inclination:      098.0692 deg
RA of node:       096.6170 deg
Eccentricity:    0.0006463
Arg of perigee:   356.6710 deg
Mean anomaly:     003.4461 deg
Mean motion:   14.69541390 rev/day
Decay rate:        9.5e-07 rev/day^2
Epoch rev:           10154
Checksum:              293

Satellite: TISAT-1
Catalog number: 36799
Epoch time:      10350.77782626
Element set:     407
Inclination:      098.1267 deg
RA of node:       052.0530 deg
Eccentricity:    0.0016120
Arg of perigee:   142.6660 deg
Mean anomaly:     217.5672 deg
Mean motion:   14.80263099 rev/day
Decay rate:       4.48e-06 rev/day^2
Epoch rev:            2332
Checksum:              291

Satellite: STUDSAT
Catalog number: 36801
Epoch time:      10349.81655459
Element set:    0106
Inclination:      098.1288 deg
RA of node:       050.9568 deg
Eccentricity:    0.0014608
Arg of perigee:   134.7577 deg
Mean anomaly:     225.4824 deg
Mean motion:   14.79877178 rev/day
Decay rate:      1.173e-05 rev/day^2
Epoch rev:           02317
Checksum:              326

Satellite: RAX
Catalog number: 37223
Epoch time:      10348.55369080
Element set:    0028
Inclination:      071.9727 deg
RA of node:       086.2100 deg
Eccentricity:    0.0022762
Arg of perigee:   269.6151 deg
Mean anomaly:     090.2373 deg
Mean motion:   14.77194760 rev/day
Decay rate:       3.30e-06 rev/day^2
Epoch rev:           00362
Checksum:              274

Satellite: OOREOS
Catalog number: 37224
Epoch time:      10341.65020651
Element set:    0024
Inclination:      071.9721 deg
RA of node:       101.4631 deg
Eccentricity:    0.0021269
Arg of perigee:   279.4939 deg
Mean anomaly:     080.3788 deg
Mean motion:   14.76858178 rev/day
Decay rate:       2.35e-06 rev/day^2
Epoch rev:           00259
Checksum:              288

Satellite: FASTSAT
Catalog number: 37225
Epoch time:      10339.55430316
Element set:    0021
Inclination:      071.9720 deg
RA of node:       106.1057 deg
Eccentricity:    0.0019965
Arg of perigee:   280.4841 deg
Mean anomaly:     079.4053 deg
Mean motion:   14.76483442 rev/day
Decay rate:        4.1e-07 rev/day^2
Epoch rev:           00228
Checksum:              266

